GALAXY 34 (G-34)

Last updated on Fri Dec 19 2025 00:02:53 GMT+0000 (Coordinated Universal Time)

1 54027U 22128B 25352.10234543 .00000000 00000+0 00000+0 0 9990 2 54027 0.0227 349.9987 0001554 272.3331 92.5663 1.00271871 12096
UTC large
Height (km)
Speed (km/s)
/
Latitude / Longitude
Inclination (degrees)
Orbital Period (minutes)
Azimuth
Elevation
Range (km)
Doppler Factor

Next 0 passes for location: London (51.5072 / 0.1276)

Sorry there are no passes over London.